Powrót do katalogu

STARLINK-11421

AktywnyŁącznośćVLEO
NORAD 61945·PAYLOAD·🇺🇸 United States

Wystrzelony Nov 14, 2024 z Vandenberg Space Force Base

Loading…

Następne Przeloty (najbliższe 24 godziny)

TLE

ŚwieżeSource: CelesTrak SupGP

Epoka: Sep 15, 2026, 02:27 UTC

1 61945C 24209G   26258.10256944 -.00022233  00000+0 -18312-3 0  2585
2 61945  53.1569 157.6960 0001072  84.6139 325.7787 15.69723521    12

Śledź STARLINK-11421 w czasie rzeczywistym z AllMySat

Download on the App Store